Wind_Speed
46 46 46 47 48 50 51 52 52 52 52 51 51 51 52 52 52 51 52 52 52 51 52 52 52 52 52 52 52 52 52 52 52 51 50 50 50 49 50 51 52 52 52
45 45 46 46 47 48 49 51 52 52 52 52 52 52 52 52 52 53 52 51 52 52 52 51 51 51 51 51 52 52 52 52 52 51 51 51 50 51 51 51 52 53 53
45 45 46 46 47 48 48 49 51 52 52 52 52 53 53 52 52 53 53 53 52 52 52 51 51 51 51 51 51 51 51 51 52 52 51 51 50 51 51 52 52 52 53
44 44 45 46 47 48 48 49 50 51 52 52 51 52 52 52 52 52 52 53 53 53 53 52 51 51 51 51 51 51 51 51 51 51 50 50 50 51 52 52 51 52 52
44 45 45 46 47 48 47 48 49 50 50 51 51 51 51 52 51 51 51 51 52 51 51 51 51 51 51 51 51 51 50 50 50 50 50 50 50 51 52 52 52 52 52
43 44 45 46 46 47 47 48 49 50 51 51 51 52 51 51 51 51 51 50 50 50 50 50 50 50 50 51 51 50 51 50 51 51 51 50 50 51 52 52 52 52 52
43 44 45 45 46 47 47 48 49 50 51 51 51 52 52 51 50 50 50 50 49 49 49 49 49 49 50 49 49 50 49 50 51 52 51 51 51 51 51 51 51 52 51
43 43 44 45 46 47 48 48 49 49 49 51 50 50 51 50 50 50 49 48 48 47 48 48 48 48 48 48 49 49 49 49 49 51 50 50 49 49 50 51 51 52 51
43 43 44 45 45 46 47 47 48 48 48 48 49 49 49 49 50 49 48 48 47 47 47 48 48 48 48 48 49 50 50 50 49 49 49 49 49 49 50 51 51 52 52
43 43 43 44 44 45 45 46 46 47 47 47 47 48 48 48 48 48 48 48 48 47 48 48 48 49 49 49 49 49 49 50 50 50 50 51 50 51 52 52 52 53 52
42 43 43 44 44 44 44 45 45 46 47 47 47 47 48 48 48 48 48 49 49 49 49 48 49 49 50 50 50 50 50 50 50 50 51 51 51 52 52 52 52 52 51
41 42 43 43 43 43 43 43 44 45 45 46 46 47 47 48 48 48 49 49 50 50 49 49 49 50 50 50 50 51 51 51 51 51 51 51 52 52 52 52 52 52 51
40 41 41 42 42 42 42 43 44 44 45 45 45 46 47 47 49 49 49 50 50 50 49 50 50 51 52 51 50 51 51 52 51 51 51 51 51 51 51 52 52 53 52
38 39 41 41 41 41 42 42 43 43 43 43 43 44 45 46 47 48 48 49 49 49 49 50 51 52 52 51 51 50 51 52 51 51 51 51 51 52 52 52 52 53 53
37 38 40 41 41 41 41 41 41 42 43 43 43 43 44 45 45 46 47 48 48 48 49 50 50 51 51 51 50 50 51 52 52 51 51 51 51 52 52 53 53 53 53
37 38 38 39 39 40 40 40 40 40 40 41 42 42 42 42 43 44 45 46 47 47 48 48 49 50 50 50 50 50 51 51 51 51 51 51 50 51 51 51 51 51 51
37 37 37 38 38 39 40 40 39 39 39 39 40 40 40 40 41 43 44 44 44 45 46 46 47 48 49 49 49 49 50 50 51 51 51 50 50 50 50 50 51 50 50
37 37 38 38 38 38 39 39 39 39 39 38 38 38 39 40 41 42 42 42 42 43 44 44 45 46 46 47 47 47 48 49 49 50 50 49 49 49 49 49 49 49 49
36 37 38 38 38 38 38 38 38 38 38 38 38 38 38 39 40 40 41 41 41 42 42 42 43 44 45 45 46 46 46 46 47 47 47 48 47 47 47 47 48 48 48
36 37 37 38 38 38 38 37 37 37 37 37 37 37 38 38 38 39 40 40 40 41 41 42 42 42 43 44 44 44 44 44 45 45 46 46 46 45 45 45 45 45 45
36 36 36 36 36 36 36 36 37 37 37 37 37 38 37 37 38 38 39 39 40 41 41 41 41 42 42 42 43 44 44 44 44 45 45 44 44 44 44 43 43 43 42
35 34 34 34 34 33 34 35 36 36 36 36 36 37 37 37 37 38 38 38 39 40 40 40 41 41 42 42 42 43 43 43 42 42 42 42 42 41 41 41 41 41 41
33 33 32 32 32 32 33 33 33 34 34 34 35 35 35 36 36 36 36 36 37 38 38 39 39 40 40 41 41 42 41 41 41 40 40 39 40 40 39 39 39 39 39
32 32 33 32 32 32 33 33 34 34 34 34 34 34 34 34 34 34 35 36 37 37 37 37 37 38 38 39 39 40 40 40 40 39 39 39 38 38 38 38 37 37 38
33 33 33 33 33 33 33 33 33 33 33 33 33 33 33 33 33 33 34 35 35 35 36 36 36 36 36 37 37 38 38 38 38 37 37 37 37 37 37 37 36 36 36
32 32 32 32 33 33 32 32 32 32 32 32 32 32 32 32 32 32 32 33 33 33 33 34 34 35 35 35 36 36 37 37 36 36 36 36 36 36 36 36 36 35 35
Wind_Direction
260 262 261 260 261 259 258 258 258 258 258 260 261 260 260 261 261 261 261 261 261 261 260 261 261 261 262 262 263 263 263 263 264 264 264 264 264 265 264 264 263 263 263
262 262 262 260 260 259 259 259 258 258 259 259 260 261 263 262 261 261 261 262 263 261 260 261 261 262 262 262 263 263 264 263 263 263 264 264 264 264 265 265 265 264 264
262 263 263 262 261 260 260 260 260 259 259 259 260 262 263 263 262 262 261 261 261 261 260 261 261 261 261 262 262 263 263 263 263 264 264 264 264 265 265 265 266 266 266
264 264 264 263 262 261 262 261 261 260 260 260 261 262 263 264 264 263 262 261 261 261 261 261 261 261 261 261 262 263 263 262 262 263 263 263 264 264 266 266 267 267 268
265 265 265 264 262 261 262 262 262 261 261 261 261 262 263 263 263 263 263 261 260 260 260 260 260 260 261 260 261 262 262 262 262 262 262 263 264 265 266 267 268 269 270
266 265 265 264 263 262 262 262 263 263 262 262 262 262 262 263 263 263 262 261 261 260 260 259 260 260 259 259 261 262 262 263 262 261 261 262 264 265 267 268 269 269 270
268 266 265 264 263 263 263 263 263 264 263 263 262 262 261 262 262 262 262 262 261 261 259 259 260 260 259 259 260 260 262 262 262 262 262 263 264 265 267 268 268 269 270
268 267 266 265 265 265 265 265 264 264 263 262 262 261 261 260 260 261 261 261 260 259 259 259 260 260 260 259 259 260 262 264 264 263 264 265 265 264 266 267 269 270 270
270 269 267 267 267 266 266 265 266 265 265 264 263 261 260 260 260 261 260 260 260 259 259 260 260 260 261 261 261 262 262 263 265 265 265 266 266 265 266 267 269 270 270
269 268 268 267 267 268 267 267 267 266 265 264 264 262 260 260 260 261 260 260 260 260 260 260 260 260 261 262 262 262 263 263 265 265 265 265 266 267 268 268 269 270 270
269 268 268 268 267 268 268 267 267 267 266 264 264 263 261 260 260 260 260 260 261 261 261 261 261 261 261 262 263 264 264 264 264 266 266 266 267 268 269 269 269 270 270
270 269 269 268 268 268 268 268 268 267 267 266 266 265 262 261 260 261 261 261 262 262 261 262 262 261 262 262 264 264 265 264 265 266 267 266 267 268 268 268 269 270 271
270 269 269 269 270 270 269 269 269 269 268 268 267 266 264 262 261 262 262 262 262 263 262 262 262 261 261 262 263 264 264 264 265 266 266 266 266 267 268 268 269 270 272
271 271 270 270 270 271 270 270 270 270 269 268 268 267 265 263 263 262 262 262 263 263 262 262 261 261 261 262 262 263 263 264 265 266 266 266 266 266 267 268 269 270 272
273 273 272 271 271 271 272 271 270 270 271 270 269 267 265 264 263 263 262 263 263 263 263 262 261 262 262 263 263 264 264 265 265 266 267 267 266 267 268 268 269 270 271
273 274 273 272 271 271 271 271 270 270 270 270 269 268 266 265 264 264 264 264 264 263 263 263 262 262 263 264 264 264 265 265 265 266 267 267 267 267 268 268 270 270 271
273 273 272 273 272 272 272 271 270 270 270 270 269 268 267 267 266 265 265 265 265 264 263 263 263 264 264 264 264 264 264 264 265 265 266 267 267 268 269 269 269 269 271
275 275 274 275 275 274 273 271 270 269 269 269 269 269 268 267 268 268 267 267 266 264 264 264 264 265 265 264 264 264 264 264 265 265 266 266 268 268 269 269 269 269 270
276 276 276 275 275 274 274 272 271 270 269 268 269 270 270 269 269 269 269 267 267 265 265 264 265 265 265 265 264 265 264 264 265 265 266 267 269 269 269 269 268 268 269
277 277 277 276 276 275 274 272 271 271 271 270 270 270 270 270 270 269 269 268 267 266 265 264 265 265 265 265 265 265 264 265 266 266 267 267 268 269 268 268 268 268 269
279 278 278 277 276 275 274 273 272 273 274 273 271 271 271 271 271 270 269 268 267 266 265 265 265 265 266 266 266 265 265 265 267 268 267 267 267 268 268 268 268 268 269
279 278 278 278 277 276 275 274 274 274 274 275 274 272 271 270 271 270 269 269 268 267 266 265 266 267 267 267 266 265 265 266 267 267 267 267 268 268 268 268 268 268 268
279 278 278 278 278 277 276 276 276 276 276 276 275 274 272 270 269 268 268 268 267 267 266 266 267 267 268 268 267 266 266 266 266 267 267 267 267 267 268 268 267 267 268
278 278 278 277 278 278 278 278 278 277 276 276 276 275 273 271 271 270 270 269 268 268 267 267 269 269 269 269 268 266 266 266 266 266 266 266 267 267 268 267 267 267 268
279 279 278 277 277 277 277 278 277 276 276 275 275 274 273 272 272 272 271 271 270 268 267 268 269 269 269 269 267 267 266 266 266 265 265 265 266 266 267 267 267 268 269
279 279 279 279 278 277 277 277 277 276 276 276 274 273 272 272 272 272 271 271 270 269 268 269 270 269 269 268 268 267 267 266 266 265 265 264 265 266 267 267 267 268 269
Height
5601 5603 5604 5605 5606 5607 5608 5610 5612 5614 5616 5618 5619 5621 5623 5625 5626 5628 5629 5631 5632 5633 5635 5637 5639 5640 5642 5644 5645 5646 5647 5648 5651 5653 5654 5654 5655 5656 5657 5657 5659 5660 5662
5589 5590 5591 5592 5592 5594 5595 5596 5598 5600 5602 5604 5606 5607 5609 5610 5612 5613 5615 5616 5618 5619 5621 5623 5625 5626 5628 5630 5631 5632 5633 5634 5636 5638 5640 5640 5641 5642 5643 5644 5645 5646 5648
5576 5577 5578 5579 5580 5581 5582 5583 5585 5587 5588 5590 5592 5593 5595 5596 5597 5599 5600 5602 5603 5605 5606 5608 5610 5612 5614 5615 5617 5618 5619 5621 5622 5624 5625 5626 5628 5628 5629 5630 5631 5632 5633
5563 5564 5565 5566 5567 5568 5569 5570 5572 5573 5574 5576 5578 5579 5581 5582 5583 5584 5585 5587 5588 5590 5592 5594 5596 5598 5600 5601 5602 5604 5605 5606 5608 5610 5611 5613 5614 5615 5615 5617 5618 5618 5619
5551 5552 5553 5553 5554 5555 5556 5557 5558 5559 5560 5562 5564 5565 5567 5568 5569 5570 5571 5573 5574 5576 5578 5580 5581 5583 5585 5587 5588 5590 5591 5592 5594 5596 5598 5599 5600 5601 5602 5603 5603 5604 5604
5539 5539 5540 5540 5541 5542 5543 5543 5545 5546 5547 5548 5550 5551 5552 5553 5554 5555 5557 5558 5560 5562 5564 5566 5567 5569 5571 5572 5574 5576 5577 5579 5580 5582 5584 5585 5587 5587 5588 5588 5589 5590 5591
5527 5527 5527 5528 5528 5529 5530 5530 5531 5532 5533 5534 5535 5537 5538 5539 5540 5541 5543 5544 5546 5548 5550 5552 5553 5555 5557 5558 5560 5562 5563 5564 5566 5568 5569 5571 5572 5574 5574 5574 5574 5574 5575
5514 5514 5515 5515 5515 5516 5517 5517 5518 5518 5518 5520 5521 5522 5524 5525 5526 5527 5529 5530 5532 5534 5536 5538 5540 5541 5543 5544 5546 5548 5549 5551 5553 5554 5556 5557 5557 5558 5559 5559 5559 5560 5561
5502 5502 5502 5503 5503 5503 5504 5504 5504 5504 5505 5505 5506 5508 5509 5511 5512 5513 5515 5517 5519 5521 5522 5524 5526 5528 5529 5530 5532 5534 5536 5537 5538 5539 5541 5542 5543 5543 5544 5544 5545 5545 5546
5490 5490 5490 5490 5490 5490 5490 5491 5490 5491 5491 5492 5493 5494 5495 5497 5498 5499 5501 5503 5506 5507 5509 5511 5512 5514 5515 5516 5518 5520 5522 5523 5524 5525 5526 5527 5528 5529 5529 5529 5529 5530 5530
5477 5477 5478 5478 5477 5477 5477 5477 5477 5478 5478 5479 5480 5481 5482 5483 5485 5486 5487 5489 5491 5493 5495 5497 5498 5499 5501 5502 5504 5506 5507 5508 5510 5511 5512 5513 5514 5514 5514 5514 5515 5515 5515
5465 5465 5465 5465 5465 5465 5465 5464 5464 5464 5465 5465 5466 5467 5468 5469 5470 5472 5473 5475 5477 5479 5481 5482 5484 5485 5486 5488 5489 5491 5492 5493 5495 5496 5497 5498 5499 5500 5500 5500 5500 5500 5500
5453 5453 5453 5453 5452 5452 5452 5451 5451 5451 5451 5452 5452 5453 5454 5455 5456 5457 5459 5460 5462 5464 5466 5468 5469 5470 5471 5473 5475 5476 5477 5479 5480 5481 5483 5484 5484 5485 5485 5485 5485 5485 5485
5441 5441 5441 5441 5440 5440 5439 5439 5439 5439 5439 5439 5439 5440 5441 5441 5442 5443 5445 5446 5447 5449 5451 5453 5454 5455 5457 5459 5461 5462 5463 5464 5465 5467 5468 5469 5469 5469 5470 5470 5470 5470 5471
5430 5429 5429 5429 5428 5428 5427 5427 5426 5426 5426 5426 5427 5427 5427 5428 5429 5430 5431 5432 5433 5434 5436 5437 5439 5441 5442 5444 5445 5446 5447 5449 5450 5451 5452 5453 5454 5454 5455 5455 5455 5455 5455
5419 5418 5417 5417 5416 5416 5415 5415 5414 5414 5413 5413 5413 5413 5414 5415 5415 5416 5417 5417 5418 5419 5421 5422 5424 5426 5427 5429 5430 5431 5432 5433 5434 5436 5437 5437 5438 5439 5439 5440 5440 5440 5440
5407 5407 5406 5405 5404 5403 5403 5403 5403 5402 5401 5401 5400 5400 5401 5402 5402 5403 5403 5404 5404 5405 5406 5408 5409 5411 5412 5413 5415 5416 5417 5418 5419 5420 5422 5422 5423 5424 5424 5424 5424 5424 5424
5396 5395 5394 5393 5392 5391 5391 5390 5390 5390 5390 5389 5389 5388 5388 5389 5389 5389 5390 5390 5391 5391 5392 5394 5395 5396 5397 5399 5400 5401 5402 5403 5404 5405 5406 5407 5408 5408 5408 5408 5409 5409 5409
5384 5383 5382 5381 5380 5379 5379 5378 5378 5378 5378 5378 5377 5377 5376 5376 5376 5376 5376 5377 5378 5378 5379 5380 5381 5382 5383 5385 5386 5387 5388 5389 5389 5390 5391 5392 5392 5393 5393 5393 5394 5394 5394
5373 5372 5370 5369 5368 5367 5367 5366 5366 5366 5366 5365 5365 5365 5364 5364 5364 5364 5364 5364 5365 5365 5366 5367 5368 5369 5370 5371 5372 5373 5374 5375 5375 5376 5377 5377 5378 5378 5378 5379 5379 5380 5380
5362 5360 5359 5358 5357 5356 5355 5355 5354 5354 5354 5353 5353 5352 5352 5352 5352 5352 5352 5352 5352 5353 5354 5354 5355 5356 5357 5357 5358 5359 5360 5361 5361 5362 5362 5363 5363 5364 5364 5365 5365 5366 5366
5351 5349 5348 5346 5345 5344 5344 5343 5342 5342 5341 5341 5340 5340 5339 5339 5339 5339 5339 5339 5340 5340 5341 5341 5342 5343 5343 5344 5344 5345 5346 5347 5348 5348 5349 5349 5350 5350 5351 5351 5352 5353 5353
5340 5338 5337 5336 5335 5334 5333 5332 5331 5331 5330 5329 5328 5328 5327 5327 5327 5327 5327 5327 5327 5327 5328 5328 5329 5330 5330 5330 5331 5332 5333 5334 5335 5335 5336 5336 5337 5337 5338 5338 5339 5340 5341
5329 5328 5327 5325 5324 5323 5322 5321 5320 5319 5319 5318 5317 5316 5316 5315 5315 5315 5315 5315 5315 5315 5315 5316 5316 5317 5317 5317 5318 5318 5319 5320 5321 5322 5323 5324 5324 5325 5326 5326 5327 5328 5328
5318 5317 5316 5314 5313 5312 5311 5310 5309 5308 5307 5306 5306 5305 5305 5304 5304 5303 5303 5303 5303 5303 5303 5303 5304 5304 5305 5305 5305 5306 5307 5307 5308 5309 5310 5311 5312 5313 5314 5314 5315 5316 5316
5307 5306 5305 5303 5302 5301 5300 5299 5298 5297 5296 5295 5295 5294 5294 5293 5293 5292 5292 5291 5291 5292 5292 5292 5292 5292 5293 5293 5293 5294 5294 5295 5296 5297 5298 5299 5300 5301 5302 5303 5304 5305 5305